Regional Weather Roundup
Issued by NWS

Home | Current Version | Previous Version | Text Only | Print | Product List | Glossary On
Versions: 1 2 3 4 5 6 7 8 9 10 11 12 13 14 15 16 17 18 19 20 21 22 23 24 25 26 27 28 29 30 31 32 33 34 35 36 37 38 39 40 41 42 43 44 45 46 47 48 49 50
000
ASUS45 KABQ 290210
RWRNM
WEATHER ROUNDUP FOR NEW MEXICO
NATIONAL WEATHER SERVICE ALBUQUERQUE NM
700 PM MST FRI NOV 28 2014

NOTE: "FAIR" MEANS FEW OR NO CLOUDS BELOW 12,000 FEET AGL WITH NO
       SIGNIFICANT WEATHER OR OBSTRUCTIONS TO VISION.

      THIS PRODUCT IS RELEASED AS TWO VERSIONS.  ONE VERSION NEAR
      THE TOP OF THE HOUR CONTAINING PRELIMINARY DATA FROM ALBUQUERQUE
      AND OTHER STATIONS.  A FINAL VERSION WITH ADDITIONAL DATA IS
      ISSUED ABOUT 10 MINUTES AFTER THE HOUR.

NMZ501-503-504-510>518-290300-
NORTHWEST PLATEAU/NORTHCENTRAL MOUNTAINS

CITY           SKY/WX    TMP DP  RH WIND       PRES   REMARKS
FARMINGTON     CLEAR     38  13  35 NE7       30.05F WCI  33
LOS ALAMOS     CLEAR     47  17  30 S6        30.15S
SANTA FE       CLEAR     42  14  32 NW6       30.11S
TAOS           PTCLDY    37  19  48 N5        30.14S WCI  34
ANGEL FIRE     FAIR      44  11  26 S7G17     30.15F

$$
NMZ402-403-502-505>509-290300-
WESTCENTRAL MOUNTAINS/SOUTHWEST MOUNTAINS

CITY           SKY/WX    TMP DP  RH WIND       PRES   REMARKS
GALLUP         PTCLDY    39   2  21 NE3       30.13S
GRANTS         PTCLDY    45   1  16 W12       30.14S
SILVER CITY    CLEAR     43  18  36 N3        30.15S

$$
NMZ407-409-411-412-290300-
SOUTHERN DESERTS

CITY           SKY/WX    TMP DP  RH WIND       PRES   REMARKS
LORDSBURG      FAIR      50  19  29 SE8       30.08S
DEMING         CLEAR     53  19  26 SW6       30.09S
LAS CRUCES     CLEAR     52  17  25 S3        30.11S
HOLLOMAN AFB   PTCLDY    46  18  33 E7        30.08S
ALAMOGORDO     PTCLDY    45  16  31 SE5       30.09S
T OR C         CLEAR     55  19  24 CALM      30.09S

$$
NMZ519>523-290300-
CENTRAL VALLEYS/CENTRAL HIGHLANDS

CITY           SKY/WX    TMP DP  RH WIND       PRES   REMARKS
ALBUQUERQUE    CLEAR     49  19  30 E6        30.09F
DOUBLE EAGLE   CLEAR     36  12  38 SW6       30.12S WCI  31
MORIARTY ARPT  FAIR      37  13  36 CALM      30.12F
CLINES CORNERS CLEAR     39  15  37 W10       30.11F WCI  32
BELEN          FAIR      46  19  33 CALM      30.09S
SOCORRO        FAIR      51  19  28 S10       30.08S

$$
NMZ524>526-539-540-290300-
SOUTHCENTRAL MOUNTAINS

CITY           SKY/WX    TMP DP  RH WIND       PRES   REMARKS
RUIDOSO        CLEAR     46  18  31 W9        30.18S

$$
NMZ527>531-290300-
NORTHEAST HIGHLANDS/NORTHEAST PLAINS

CITY           SKY/WX    TMP DP  RH WIND       PRES   REMARKS
LAS VEGAS      PTCLDY    46  11  24 S12       30.06F
RATON          CLOUDY    48   7  18 SW10      29.98S
CLAYTON        CLOUDY    65   1   8 W23G35    29.87F

$$
NMZ532>537-290300-
EASTCENTRAL PLAINS

CITY           SKY/WX    TMP DP  RH WIND       PRES   REMARKS
TUCUMCARI      CLEAR     59  21  23 SW10      29.91S
CANNON AFB     CLEAR     54  18  24 W8        29.99S
CLOVIS AIRPORT PTCLDY    48  14  25 SW10      29.98S

$$
NMZ028-029-538-290300-
SOUTHEAST PLAINS

CITY           SKY/WX    TMP DP  RH WIND       PRES   REMARKS
ROSWELL        CLEAR     48  27  44 S7        29.99S
CARLSBAD       CLEAR     48  30  49 E3        29.99R
HOBBS          CLEAR     48  19  32 S10       30.03S


$$


USA.gov is the U.S. government's official web portal to all federal, state and local government web resources and services.